[[{"header":{"parameterUnit":"m.s-1","parameterCategory":1,"la1":30.2991,"la2":30.254,"lo1":-89.0895,"lo2":-89.0444,"dy":0.0017,"dx":0.0017,"nx":28,"ny":28,"refTime":"2024-04-17T09:00:00:Z","depth":0,"parameterNumber":2,"parameterNumberName":"U-component_of_WINDS"},"data":[0,0,0,0,0,0,0,0,0,0,0,0,0,0,0,0,0,0,0,0,0,0,0,0,0,0,0,0,0,0,0,0,0,0,0,0,0,0,0,0,0,0,0,0,0,0,0,0,0,0,0,0,0,0,0,0,0,0,-1.2466,-1.2467,0,-1.2559,-1.256,-1.2561,-1.2583,-1.2583,-1.2582,-1.2581,-1.2681,-1.2685,-1.2688,0,0,0,0,0,0,0,0,0,0,0,0,0,-1.231,-1.2313,-1.2465,-1.2467,-1.2468,-1.2559,-1.256,-1.2562,-1.2583,-1.2582,-1.2582,-1.2581,-1.268,-1.2684,-1.2688,0,0,0,0,0,0,0,0,0,0,0,0,0,-1.2388,-1.2314,-1.2465,-1.249,-1.2493,-1.2559,-1.256,-1.2562,-1.2583,-1.2582,-1.2581,-1.2581,-1.2679,-1.2684,-1.2689,-1.2739,0,0,-1.2704,-1.2706,0,0,0,0,0,0,0,0,-1.2384,-1.2394,-1.2485,-1.2488,-1.2492,-1.2558,-1.2542,-1.2621,-1.2584,-1.2549,-1.2581,-1.258,-1.2642,-1.2649,-1.2669,-1.2743,-1.2748,-1.2704,-1.2707,-1.2709,-1.2711,0,0,0,0,0,0,0,-1.2378,-1.239,-1.2503,-1.2486,-1.249,-1.2497,-1.2507,-1.2557,-1.26,-1.2552,-1.2554,-1.2564,-1.2643,-1.2665,-1.2672,-1.2749,-1.2704,-1.2708,-1.2711,-1.2713,-1.287,-1.2871,0,0,0,0,0,0,-1.2368,-1.2385,-1.25,-1.2505,-1.2434,-1.2501,-1.2512,-1.2538,-1.2599,-1.2608,-1.2565,-1.2565,-1.2657,-1.2666,-1.2675,-1.2738,-1.2709,-1.2714,-1.2717,-1.2869,-1.287,-1.2871,0,0,0,0,0,0,-1.2365,-1.2378,-1.2496,-1.2446,-1.2461,-1.2505,-1.2534,-1.254,-1.2562,-1.2609,-1.2617,-1.2579,-1.2656,-1.2669,-1.2723,-1.2742,-1.2716,-1.272,-1.2867,-1.2869,-1.2871,-1.2864,0,0,0,0,0,0,-1.236,-1.2377,-1.2395,-1.2446,-1.2464,-1.254,-1.2535,-1.2543,-1.257,-1.257,-1.2624,-1.2632,-1.2656,-1.2715,-1.2728,-1.2749,-1.2724,-1.2866,-1.2868,-1.287,-1.2863,-1.2866,-1.2868,0,0,0,0,0,-1.2355,-1.239,-1.2396,-1.2409,-1.2488,-1.2541,-1.2552,-1.2578,-1.2571,-1.2591,-1.2621,-1.263,-1.2738,-1.2721,-1.2735,-1.2757,-1.2865,-1.2867,-1.287,-1.2862,-1.2865,-1.2868,0,0,0,0,0,0,-1.2342,-1.2397,-1.2404,-1.2457,-1.2494,-1.2545,-1.257,-1.258,-1.2621,-1.262,-1.2652,-1.2664,-1.2716,-1.2742,-1.2722,-1.2809,-1.2801,-1.2807,-1.279,-1.2794,-1.2796,-1.2789,-1.2728,0,0,0,0,0,-1.2345,-1.2382,-1.243,-1.2472,-1.249,-1.2527,-1.2551,-1.2568,-1.2608,-1.2624,-1.2659,-1.2699,-1.2742,-1.2769,-1.2811,-1.2867,-1.288,-1.289,-1.2892,-1.2894,-1.2899,-1.2931,-1.2936,-1.288,-1.288,-1.288,0,0,-1.2352,-1.2387,-1.2409,-1.247,-1.2501,-1.254,-1.254,-1.2582,-1.2612,-1.2631,-1.2684,-1.2711,-1.2758,-1.2813,-1.2839,-1.2836,-1.2917,-1.2897,-1.2898,-1.2902,-1.2934,-1.2939,-1.2944,-1.2882,-1.2882,-1.2882,0,0,-1.2386,-1.2416,-1.2454,-1.2485,-1.253,-1.2555,-1.2564,-1.2613,-1.2631,-1.2685,-1.27,-1.2737,-1.281,-1.2843,-1.2869,-1.2915,-1.2926,-1.2928,-1.2942,-1.2973,-1.2977,-1.2981,-1.2998,-1.3004,-1.2933,-1.2933,-1.2933,0,-1.239,-1.2448,-1.2473,-1.2514,-1.2541,-1.2559,-1.2599,-1.2628,-1.2686,-1.2705,-1.2701,-1.2793,-1.2826,-1.2889,-1.29,-1.2921,-1.2933,-1.2922,-1.2974,-1.2978,-1.2983,-1.2999,-1.3006,-1.2933,-1.2933,-1.2933,-1.2933,0,-1.2451,-1.2492,-1.2518,-1.2571,-1.2601,-1.2642,-1.2674,-1.2702,-1.2716,-1.2741,-1.2796,-1.2836,-1.2887,-1.2903,-1.2918,-1.2969,-1.2966,-1.2967,-1.296,-1.2987,-1.3004,-1.301,-1.2933,-1.2933,-1.2933,-1.2933,0,0,-1.248,-1.2546,-1.2555,-1.258,-1.2632,-1.2665,-1.2707,-1.2755,-1.2778,-1.2817,-1.2854,-1.2916,-1.2917,-1.2947,-1.2966,-1.2993,-1.3028,-1.2992,-1.2993,-1.2998,-1.3088,-1.3086,-1.3093,-1.3035,-1.3036,-1.3037,-1.3084,0,-1.252,-1.2593,-1.2617,-1.2679,-1.2718,-1.2735,-1.2772,-1.2809,-1.2833,-1.2871,-1.2899,-1.2942,-1.2941,-1.2959,-1.2986,-1.3018,-1.3047,-1.3015,-1.3071,-1.3073,-1.3059,-1.3102,-1.31,-1.3142,-1.309,-1.3091,-1.3092,0,-1.2577,-1.2616,-1.2681,-1.2728,-1.2745,-1.2777,-1.2823,-1.2858,-1.2901,-1.2917,-1.295,-1.2967,-1.3013,-1.3002,-1.3067,-1.3044,-1.3069,-1.3088,-1.309,-1.3097,-1.3084,-1.311,-1.3156,-1.3162,-1.3102,-1.3102,-1.3101,0,-1.2592,-1.266,-1.2708,-1.2729,-1.2785,-1.2807,-1.2832,-1.2873,-1.2901,-1.2942,-1.296,-1.3006,-1.3032,-1.3068,-1.3098,-1.3087,-1.316,-1.3152,-1.3176,-1.3175,-1.3191,-1.3189,-1.3242,-1.3206,-1.3205,-1.3205,-1.3205,0,-1.2635,-1.2674,-1.2716,-1.2745,-1.279,-1.2818,-1.2862,-1.2888,-1.2925,-1.2961,-1.298,-1.3014,-1.305,-1.3089,-1.3112,-1.3163,-1.3174,-1.319,-1.3196,-1.3188,-1.3186,-1.3205,-1.3203,-1.3207,-1.3207,-1.3206,-1.3206,0,-1.266,-1.2689,-1.2742,-1.279,-1.2803,-1.2834,-1.2876,-1.2907,-1.2932,-1.2977,-1.299,-1.303,-1.3077,-1.311,-1.317,-1.3186,-1.3241,-1.3246,-1.3226,-1.3229,-1.3251,-1.3249,-1.3318,-1.3329,-1.3285,-1.3285,-1.3285,0,-1.2685,-1.2716,-1.2767,-1.2791,-1.2815,-1.2855,-1.2883,-1.2912,-1.294,-1.2991,-1.3015,-1.3063,-1.3103,-1.3177,-1.3213,-1.326,-1.3267,-1.3288,-1.3274,-1.3266,-1.3268,-1.3266,-1.3269,-1.329,-1.329,-1.329,-1.3291,0,-1.2728,-1.2741,-1.2779,-1.2822,-1.2855,-1.2891,-1.2927,-1.2947,-1.2982,-1.3014,-1.3061,-1.3092,-1.3153,-1.3201,-1.3251,-1.3278,-1.3291,-1.3294,-1.3303,-1.3296,-1.3283,-1.3291,-1.3232,-1.3293,-1.3293,-1.3293,-1.3292,-1.3292,-1.2755,-1.2783,-1.2823,-1.2865,-1.2895,-1.2928,-1.2959,-1.2987,-1.3027,-1.3078,-1.3093,-1.3142,-1.3185,-1.3253,-1.3281,-1.3321,-1.332,-1.3332,-1.3335,-1.3337,-1.3337,-1.3276,-1.3331,-1.3331,-1.3331,-1.3331,-1.3331,0,-1.28,-1.2826,-1.2864,-1.2913,-1.2947,-1.2954,-1.2995,-1.3023,-1.3065,-1.3103,-1.3141,-1.3196,-1.3242,-1.3281,-1.333,-1.3354,-1.3362,-1.3366,-1.3365,-1.3371,-1.3336,-1.3324,-1.336,-1.336,-1.336,-1.336,-1.3359,-1.3359,-1.2827,-1.2874,-1.2892,-1.2955,-1.2981,-1.3028,-1.3051,-1.3083,-1.3113,-1.3172,-1.321,-1.3235,-1.3274,-1.3325,-1.3368,-1.3378,-1.3396,-1.3399,-1.3411,-1.3377,-1.3374,-1.3371,-1.336,-1.3402,-1.3402,-1.3443,-1.3444,-1.3444]},{"header":{"parameterUnit":"m.s-1","parameterCategory":1,"la1":30.2991,"la2":30.254,"lo1":-89.0895,"lo2":-89.0444,"dy":0.0017,"dx":0.0017,"nx":28,"ny":28,"refTime":"2024-04-17T09:00:00:Z","depth":0,"parameterNumber":3,"parameterNumberName":"V-component_of_WINDS"},"data":[0,0,0,0,0,0,0,0,0,0,0,0,0,0,0,0,0,0,0,0,0,0,0,0,0,0,0,0,0,0,0,0,0,0,0,0,0,0,0,0,0,0,0,0,0,0,0,0,0,0,0,0,0,0,0,0,0,0,5.2937,5.2938,0,5.3006,5.3006,5.3007,5.2976,5.2974,5.2972,5.297,5.3037,5.3041,5.3044,0,0,0,0,0,0,0,0,0,0,0,0,0,5.2777,5.278,5.2937,5.2938,5.2939,5.3006,5.3006,5.3007,5.2976,5.2974,5.2972,5.297,5.3036,5.304,5.3044,0,0,0,0,0,0,0,0,0,0,0,0,0,5.2846,5.2781,5.2937,5.2931,5.2932,5.3005,5.3006,5.3008,5.2976,5.2974,5.2971,5.2969,5.3035,5.304,5.3045,5.3127,0,0,5.306,5.3062,0,0,0,0,0,0,0,0,5.2842,5.2852,5.2931,5.2932,5.2932,5.298,5.2974,5.3048,5.2977,5.2959,5.297,5.2967,5.302,5.3026,5.3044,5.313,5.3133,5.3061,5.3064,5.3066,5.3067,0,0,0,0,0,0,0,5.2837,5.2849,5.2964,5.2933,5.2933,5.2925,5.2931,5.2988,5.3003,5.2961,5.2958,5.2967,5.302,5.304,5.3046,5.3134,5.3061,5.3065,5.3068,5.307,5.3291,5.3294,0,0,0,0,0,0,5.2833,5.2845,5.2962,5.2966,5.288,5.293,5.2937,5.2967,5.3002,5.3005,5.2969,5.2965,5.3032,5.304,5.3048,5.3147,5.3066,5.3071,5.3074,5.3288,5.3292,5.3295,0,0,0,0,0,0,5.283,5.2844,5.2959,5.2905,5.2919,5.2935,5.2968,5.297,5.2989,5.3009,5.3011,5.2987,5.303,5.3041,5.3108,5.3148,5.3073,5.3077,5.3285,5.3289,5.3293,5.3345,0,0,0,0,0,0,5.2825,5.2843,5.2875,5.2906,5.2922,5.3019,5.2971,5.2973,5.2999,5.2994,5.3026,5.3029,5.3029,5.3101,5.3113,5.3154,5.3081,5.3281,5.3287,5.3292,5.334,5.335,5.336,0,0,0,0,0,5.282,5.2886,5.2877,5.2891,5.2963,5.3022,5.3031,5.3031,5.3002,5.3034,5.3047,5.3028,5.3142,5.3108,5.3121,5.3165,5.3279,5.3285,5.3291,5.3335,5.3348,5.3359,0,0,0,0,0,0,5.2858,5.289,5.288,5.2959,5.2988,5.3016,5.3056,5.3044,5.3081,5.3076,5.3073,5.308,5.315,5.3164,5.3125,5.3246,5.3206,5.3215,5.3234,5.3247,5.3257,5.3252,5.3086,0,0,0,0,0,5.2876,5.2922,5.2947,5.3014,5.3029,5.3041,5.3066,5.3064,5.3093,5.3105,5.3122,5.3151,5.3193,5.3221,5.3261,5.3342,5.3348,5.3378,5.3388,5.3396,5.3404,5.3448,5.3461,5.3316,5.3316,5.3316,0,0,5.2913,5.2936,5.2965,5.3022,5.3045,5.3091,5.3051,5.3102,5.3137,5.3112,5.3177,5.3191,5.3222,5.3297,5.333,5.3311,5.3446,5.3404,5.3411,5.3414,5.3456,5.3469,5.3482,5.332,5.3319,5.3319,0,0,5.3004,5.3027,5.3085,5.3108,5.3143,5.315,5.3164,5.3195,5.3203,5.3268,5.3251,5.3292,5.3365,5.3388,5.3409,5.351,5.3494,5.3523,5.3575,5.3617,5.3629,5.3639,5.3674,5.3687,5.3531,5.3531,5.3531,0,5.3045,5.3116,5.3116,5.3169,5.3194,5.3176,5.3234,5.3257,5.3302,5.332,5.3297,5.3389,5.3409,5.3488,5.3513,5.3531,5.3546,5.3519,5.3627,5.3637,5.3647,5.368,5.3694,5.3534,5.3534,5.3534,5.3533,0,5.3165,5.3214,5.3257,5.3303,5.3333,5.3388,5.3396,5.3426,5.3421,5.3431,5.3497,5.3521,5.3565,5.3584,5.3579,5.3663,5.3649,5.3627,5.3587,5.3664,5.3695,5.3708,5.3539,5.3538,5.3537,5.3536,0,0,5.3281,5.3327,5.3343,5.3363,5.34,5.3438,5.3492,5.3537,5.3563,5.3595,5.364,5.3702,5.3683,5.3707,5.3704,5.3742,5.382,5.3715,5.3716,5.3733,5.3912,5.3928,5.3943,5.381,5.3812,5.3814,5.391,0,5.3375,5.3471,5.3473,5.3561,5.3606,5.3589,5.3637,5.3664,5.3674,5.3713,5.3724,5.3769,5.3739,5.3754,5.379,5.3802,5.3855,5.3796,5.385,5.3852,5.3842,5.396,5.3977,5.4066,5.3922,5.3924,5.3926,0,5.3497,5.3534,5.3627,5.3657,5.3676,5.3719,5.376,5.3798,5.3829,5.3833,5.3861,5.3853,5.3908,5.3866,5.3941,5.39,5.3923,5.3932,5.3936,5.394,5.3893,5.3967,5.4094,5.4108,5.3945,5.3944,5.3942,0,5.3572,5.3645,5.371,5.3728,5.3766,5.3796,5.3813,5.3841,5.3868,5.3903,5.392,5.3962,5.3984,5.4016,5.4019,5.3988,5.4094,5.4052,5.4098,5.4098,5.4121,5.4119,5.4253,5.4136,5.4136,5.4136,5.4136,0,5.3676,5.3733,5.3744,5.3784,5.3848,5.3849,5.3912,5.3926,5.3951,5.3993,5.3981,5.402,5.4022,5.4062,5.4065,5.4126,5.4136,5.4141,5.4141,5.4142,5.4141,5.4156,5.4149,5.414,5.4139,5.4138,5.4137,0,5.377,5.378,5.385,5.388,5.3889,5.3935,5.396,5.3998,5.4007,5.406,5.4072,5.4087,5.4133,5.414,5.4194,5.4196,5.4269,5.4263,5.4259,5.4258,5.4303,5.4299,5.445,5.447,5.4342,5.4343,5.4344,0,5.3835,5.3879,5.3915,5.3942,5.3961,5.4006,5.4033,5.4036,5.4065,5.4103,5.4136,5.4182,5.4218,5.4293,5.4307,5.4349,5.4343,5.4393,5.4349,5.4348,5.4343,5.434,5.4344,5.4402,5.4403,5.4404,5.4405,0,5.395,5.3953,5.3994,5.4037,5.407,5.4103,5.4135,5.4158,5.4165,5.4198,5.4246,5.4274,5.433,5.4375,5.4416,5.4432,5.442,5.4419,5.4432,5.4433,5.4429,5.4431,5.4282,5.4415,5.4414,5.4414,5.4413,5.4413,5.4032,5.407,5.4101,5.4147,5.4171,5.4201,5.4238,5.4252,5.4292,5.4339,5.4338,5.439,5.4419,5.4473,5.4492,5.4533,5.4516,5.4535,5.4539,5.4544,5.4548,5.4423,5.454,5.454,5.454,5.454,5.4539,0,5.4145,5.4165,5.4207,5.4252,5.4288,5.4274,5.4308,5.4339,5.4386,5.4414,5.4451,5.4506,5.4549,5.4568,5.4611,5.4639,5.4635,5.465,5.4648,5.4652,5.4561,5.4545,5.4653,5.4653,5.4653,5.4653,5.4653,5.4653,5.4209,5.4273,5.4279,5.4355,5.4373,5.4426,5.4446,5.4473,5.4496,5.4559,5.4595,5.4607,5.4632,5.4676,5.4715,5.472,5.4735,5.4754,5.4755,5.467,5.4658,5.4647,5.4632,5.4757,5.4757,5.4843,5.4844,5.4844]}]]